Miscellaneous Local Product
Issued by NWS North Platte, NE

Home | Current Version | Previous Version | Text Only | Print | Product List | Glossary On
Versions: 1 2 3 4 5 6 7 8 9 10 11 12 13 14 15 16 17 18 19 20 21 22 23 24 25 26 27 28 29 30 31 32 33 34 35 36 37 38 39 40 41 42 43 44 45 46 47 48 49 50
000
AXUS43 KLBF 012210
MISLBF


WESTERN AND NORTH CENTRAL NEBRASKA HOURLY WEATHER ROUNDUP
NATIONAL WEATHER SERVICE NORTH PLATTE NE
500 PM CDT WED APR 01 2015

***STATIONS NOT REPORTING VARIABLES SUCH AS SKY/WEATHER OR
PRESSURE ARE PROVIDED BY THE NEBRASKA DEPARTMENT OF
ROADS...RAWS...AND APRS NETWORKS...AND ARE NOT UNDER
NATIONAL WEATHER SERVICE QUALITY CONTROL***

...OBSERVATIONS IN AND NEAR THE EASTERN PANHANDLE OF NEBRASKA...

CITY           SKY/WX    TMP DP  RH WIND       PRES   REMARKS
PINE RIDGE     MOSUNNY   60  32  34 N14       29.72R
CHADRON        MOSUNNY   60  34  37 NW21G29   29.76R
ALLIANCE       CLOUDY    63  35  35 N16       29.71R
SIDNEY         PTSUNNY   66  24  20 NW25G32   29.72R
WHITECLAY        N/A     61  33  35 E17         N/A
CRESCENT LAKE    N/A     65  34  31 N13G21      N/A
$$

...OBSERVATIONS IN NORTH CENTRAL NEBRASKA...

CITY           SKY/WX    TMP DP  RH WIND       PRES   REMARKS
VALENTINE      PTSUNNY   65  34  31 N14G24    29.69R
THEDFORD       PTSUNNY   69  39  33 N18G24    29.66F
AINSWORTH      CLOUDY    65  36  34 NW20G28   29.66R
O`NEILL        PTSUNNY   68  40  35 NW22      29.61R
ORD            PTSUNNY   80  35  19 N25G35    29.54R
BROKEN BOW     PTSUNNY   71  39  31 N26       29.59R
BROWNLEE         N/A     67  40  36 S22         N/A
SPRINGVIEW       N/A     66  40  38 NW12G21     N/A
BREWSTER         N/A     71  40  31 E17         N/A
ROSE             N/A     71  45  38 W17         N/A
NEWPORT          N/A     69  42  36 W12         N/A
SARGENT          N/A     71  39  30 N9G21       N/A
COMSTOCK         N/A     85  37  17 E18         N/A
EWING            N/A     75  42  31 NW15G26     N/A
$$

...OBSERVATIONS IN SOUTHWEST NEBRASKA AND FAR NORTHEAST COLORADO...

CITY           SKY/WX    TMP DP  RH WIND       PRES   REMARKS
WRAY           MOCLDY    77  24  13 N10G16    29.61S
HOLYOKE        FAIR      75  28  17 N15       29.64S
IMPERIAL       SUNNY     79  26  14 N13G24    29.61F
OGALLALA       MOSUNNY   75  32  20 NE9G21    29.64S
NORTH PLATTE   PTSUNNY   76  31  19 N16G24    29.61R
MCCOOK         PTSUNNY   87  29  12 VRB7      29.54F
LEXINGTON      CLOUDY    82  35  19 CALM      29.55S
PAXTON           N/A     76  32  20 N9          N/A
SUTHERLAND       N/A     78  26  15 N17         N/A
BRADY            N/A     77  36  23 SE3G15      N/A
GOTHENBURG       N/A     82  28  14 NW7         N/A
CALLAWAY         N/A     74  40  28 N17         N/A
$$

...NORTH PLATTE AREA...

CITY           SKY/WX    TMP DP  RH WIND       PRES   REMARKS
AIRPORT        PTSUNNY   76  31  19 N16G24    29.61R
DOWNTOWN         N/A     75  33  22 N12G20      N/A
$$

...SOME WEATHER OBSERVATIONS FROM AROUND THE REGION...

CITY           SKY/WX    TMP DP  RH WIND       PRES   REMARKS
DENVER         PTSUNNY   66  25  21 NW21G30   29.71F
LARAMIE        MOSUNNY   51  14  22 W23G33    29.85S
CHEYENNE       PTSUNNY   58  24  27 NW22G35   29.78R
SCOTTSBLUFF    PTSUNNY   66  16  14 W24G33    29.71S
RAPID CITY     MOSUNNY   54  26  34 NW37G48   29.75R
PIERRE         SUNNY     67  26  21 NW30G37   29.64R
WINNER         FAIR      69  32  25 N26G33    29.65R
SIOUX FALLS    CLOUDY    76  34  21 W16G26    29.50R
OMAHA          MOSUNNY   84  46  26 S33G39    29.57F
GRAND ISLAND   PTSUNNY   86  42  21 S20G30    29.54F
KANSAS CITY    MOSUNNY   78  53  41 S24G30    29.73S
WICHITA        MOSUNNY   86  53  32 S26G36    29.62F
HAYS           MOSUNNY   86  48  26 S26G32    29.55F
LIBERAL        CLOUDY    84  30  14 S5        29.61F
GOODLAND       SUNNY     81  24  12 N8        29.59F
$$



USA.gov is the U.S. government's official web portal to all federal, state and local government web resources and services.